Flag for Canada Weather past 2 weeks in Yorkton, Saskatchewan, Canada

Now
52 °F

Sunny.


Feels Like: 50 °F
Forecast: 48 / 76 °F
Wind: 6 mph from Southwest

Location: Yorkton

Current Time: Sep 22, 2014 at 8:39:14 AM

Latest Report: Sep 22, 2014 at 8:00 AM


Visibility: 9 mi

Pressure: 30.04 "Hg

Humidity: 67%

Dew point: 41 °F

Location of YorktonLocation

Historic Weather in Yorkton — Graph

°F

Yorkton temperature yesterday

Maximum temperature yesterday: 72 °F (at 3:00 PM)
Minimum temperature yesterday: 43 °F (at 4:00 AM)
Average temperature yesterday: 57 °F

Past Weeks' High & Low Weather Summary

 TemperatureHumidityPressure
High77 °F (Sep 7, 3:00 PM)100% (Sep 8, 3:00 AM)30.56 "Hg (Sep 8, 3:00 AM)
Low34 °F (Sep 10, 6:00 AM)31% (Sep 16, 3:00 PM)29.47 "Hg (Sep 18, 10:00 PM)
Average51 °F71%30.05 "Hg
* Reported Sep 7 7:00 AM — Sep 22 7:00 AM, Yorkton, Weather by CustomWeather, © 2014

Note: Actual official high and low records may vary slightly from our data, if they occured in-between our weather recording intervals... More about our weather records

Advertising

Yorkton weather history for previous 24 hours

 ConditionsComfort  
Time TempWeatherWind HumidityBarometerVisibility
7:00 AM
Sep 22
48 °FSunny.9 mph76%30.05 "Hg9 mi
6:00 AM46 °FClear.12 mph82%30.05 "Hg9 mi
5:00 AM48 °FClear.10 mph76%30.05 "Hg9 mi
4:00 AM48 °FClear.10 mph82%30.05 "Hg9 mi
3:00 AM50 °FClear.8 mph76%30.06 "Hg9 mi
2:00 AM52 °FClear.9 mph72%30.06 "Hg9 mi
1:00 AM55 °FClear.10 mph63%30.06 "Hg9 mi
12:00 AM54 °FClear.9 mph72%30.07 "Hg9 mi
11:00 PM
Sep 21
57 °FClear.10 mph63%30.08 "Hg9 mi
10:00 PM57 °FClear.9 mph63%30.09 "Hg9 mi
9:00 PM59 °FClear.10 mph59%30.10 "Hg9 mi
8:00 PM59 °FClear.8 mph63%30.12 "Hg9 mi
7:00 PM63 °FClear.7 mph52%30.12 "Hg9 mi
6:00 PM68 °FSunny.7 mph43%30.13 "Hg9 mi
5:00 PM70 °FSunny.12 mph35%30.14 "Hg9 mi
4:00 PM72 °FSunny.12 mph31%30.14 "Hg9 mi
3:00 PM72 °FSunny.15 mph31%30.16 "Hg9 mi
2:00 PM70 °FSunny.14 mph33%30.17 "Hg9 mi
1:00 PM70 °FSunny.10 mph35%30.19 "Hg9 mi
12:00 PM68 °FSunny.13 mph38%30.22 "Hg9 mi
11:00 AM64 °FSunny.9 mph52%30.22 "Hg9 mi
10:00 AM61 °FSunny.9 mph63%30.24 "Hg9 mi
9:00 AM55 °FSunny.7 mph77%30.24 "Hg9 mi
8:00 AM48 °FSunny.7 mph87%30.24 "Hg9 mi
Weather by CustomWeather, © 2014

See weather overviewHow to use our weather pages